Youngstown, OH

1:46 AM EDT on April 26, 2017 (GMT -0400)
Youngstown-Warren Regional

Weather History for KYNG - November, 2014

Change the Weather History Date:

Wednesday, November 5, 2014

  Actual Average Record
Temperature  
Mean Temperature 51 °F 45 °F  
Max Temperature 58 °F 54 °F 77 °F (1948)
Min Temperature 43 °F 37 °F 13 °F (1991)
Degree Days  
Heating Degree Days 14 20  
Month to date heating degree days 100 97  
Since 1 July heating degree days 681 718  
Cooling Degree Days 0 0  
Month to date cooling degree days 0 0  
Year to date cooling degree days 533 544  
Moisture  
Dew Point 39 °F    
Average Humidity 68    
Maximum Humidity 93    
Minimum Humidity 43    
Precipitation  
Precipitation 0.03 in 0.10 in 0.78 in (1985)
Month to date precipitation 0.19 0.52  
Year to date precipitation 34.74 33.26  
Snow  
Snow 0.00 in 0.10 in - ()
Month to date snowfall 0.0 0.3  
Since 1 July snowfall T 1.1  
Since 1 September snowfall T 1.1  
Snow Depth 0.00 in    
Sea Level Pressure  
Sea Level Pressure 30.13 in    
Wind  
Wind Speed 10 mph (SW)    
Max Wind Speed 21 mph    
Max Gust Speed 28 mph    
Visibility 10 miles    
Events Rain    
T = Trace of Precipitation, MM = Missing Value Source: NWS Daily Summary

Daily Weather History Graph

Daily Weather History Graph

Search for Another Location

Airport or City:

Trip Planner

Search our weather history database for the weather conditions in past years. The results will help you decide how hot, cold, wet, or windy it might be!

Date:

Astronomy

Nov. 05, 2014 Rise Set
Actual Time 6:58 AM EST 5:13 PM EST
Civil Twilight 6:29 AM EST 5:42 PM EST
Nautical Twilight 5:57 AM EST 6:15 PM EST
Astronomical Twilight 5:24 AM EST 6:47 PM EST
Moon 4:38 PM EST (11/5) 5:21 AM EST (11/5)
Length of Visible Light 11h 12m
Length of Day
10h 14m
Waxing Gibbous, 98% of the Moon is Illuminated
Nov 5
Waxing Gibbous
Nov 6
Full
Nov 14
Last Quarter
Nov 22
New
Nov 29
First Quarter

Hourly Weather History & Observations

Time (EST) Temp. Windchill Dew Point Humidity Pressure Visibility Wind Dir Wind Speed Gust Speed Precip Events Conditions
12:35 AM 52.0 °F - 48.0 °F 86% 30.05 in 10.0 mi West 12.7 mph 23.0 mph 0.04 in Rain Light Rain
12:51 AM 51.1 °F - 46.9 °F 86% 30.06 in 10.0 mi West 13.8 mph 21.9 mph 0.04 in Rain Light Rain
1:51 AM 50.0 °F - 44.1 °F 80% 30.08 in 10.0 mi West 11.5 mph - 0.00 in   Overcast
2:06 AM 48.9 °F - 44.1 °F 83% 30.09 in 10.0 mi WNW 12.7 mph 19.6 mph N/A   Overcast
2:40 AM 48.0 °F - 42.1 °F 80% 30.10 in 10.0 mi West 10.4 mph - N/A   Overcast
2:51 AM 46.9 °F - 42.1 °F 83% 30.11 in 10.0 mi West 9.2 mph - N/A   Overcast
3:51 AM 46.0 °F 41.9 °F 39.9 °F 79% 30.13 in 10.0 mi West 8.1 mph - N/A   Overcast
4:51 AM 44.1 °F 40.1 °F 39.9 °F 85% 30.14 in 10.0 mi WSW 6.9 mph - N/A   Overcast
5:51 AM 44.1 °F 39.5 °F 39.9 °F 85% 30.14 in 10.0 mi SSW 8.1 mph - N/A   Overcast
6:51 AM 43.0 °F 37.7 °F 39.9 °F 89% 30.16 in 8.0 mi SW 9.2 mph - N/A   Mostly Cloudy
7:51 AM 44.1 °F 38.6 °F 39.9 °F 85% 30.17 in 6.0 mi SW 10.4 mph - N/A   Mostly Cloudy
8:51 AM 45.0 °F 40.1 °F 39.0 °F 80% 30.18 in 7.0 mi SSW 9.2 mph - N/A   Mostly Cloudy
9:51 AM 46.9 °F - 37.9 °F 71% 30.18 in 10.0 mi SW 12.7 mph - N/A   Mostly Cloudy
10:51 AM 50.0 °F - 37.0 °F 61% 30.18 in 10.0 mi SW 12.7 mph - N/A   Mostly Cloudy
11:51 AM 53.1 °F - 37.9 °F 57% 30.17 in 10.0 mi SW 13.8 mph - N/A   Mostly Cloudy
12:51 PM 55.9 °F - 37.0 °F 49% 30.15 in 10.0 mi SW 17.3 mph 21.9 mph N/A   Scattered Clouds
1:51 PM 57.0 °F - 35.1 °F 44% 30.14 in 10.0 mi West 16.1 mph 23.0 mph N/A   Scattered Clouds
2:51 PM 57.9 °F - 35.1 °F 42% 30.13 in 10.0 mi SW 12.7 mph - N/A   Scattered Clouds
3:51 PM 57.0 °F - 35.1 °F 44% 30.13 in 10.0 mi West 10.4 mph - N/A   Scattered Clouds
4:51 PM 53.1 °F - 34.0 °F 48% 30.15 in 10.0 mi SW 9.2 mph - N/A   Scattered Clouds
5:51 PM 50.0 °F - 34.0 °F 54% 30.15 in 10.0 mi SSW 6.9 mph - N/A   Scattered Clouds
6:51 PM 48.0 °F - 34.0 °F 58% 30.15 in 10.0 mi SSW 6.9 mph - N/A   Scattered Clouds
7:51 PM 46.9 °F - 34.0 °F 61% 30.14 in 10.0 mi SSW 5.8 mph - N/A   Mostly Cloudy
8:51 PM 46.0 °F 43.9 °F 34.0 °F 63% 30.14 in 10.0 mi South 4.6 mph - N/A   Mostly Cloudy
9:51 PM 46.0 °F 43.1 °F 34.0 °F 63% 30.12 in 10.0 mi South 5.8 mph - N/A   Mostly Cloudy
10:51 PM 45.0 °F 41.8 °F 35.1 °F 68% 30.09 in 10.0 mi South 5.8 mph - N/A   Overcast
11:51 PM 45.0 °F 41.2 °F 37.0 °F 74% 30.06 in 10.0 mi SSE 6.9 mph - N/A   Overcast